Lapse_Rate
6.0 6.3 6.2 5.7 5.9 5.9 5.7 5.5 5.6 6.5 6.1 6.0 5.6 5.0 5.7 5.8 6.1 6.7 6.8 6.5 6.2 6.2 6.8 6.8 6.8 6.8 6.8 6.7 6.7 6.6 6.3 6.1 6.0 6.1 6.2 6.2 6.3 6.3 6.2 6.1 6.1 6.2 6.4 6.2
6.0 6.0 6.2 6.2 5.8 5.5 5.6 5.8 5.7 6.0 6.0 5.6 5.1 5.1 5.7 6.0 6.4 6.9 7.1 7.0 6.9 6.7 6.8 6.8 6.9 6.8 6.7 6.6 6.4 6.4 6.3 6.1 5.9 5.7 5.9 5.9 5.9 6.0 6.1 6.0 5.8 5.9 6.1 6.1
5.9 6.1 6.0 6.0 5.9 5.7 5.6 5.8 5.5 5.6 5.6 5.4 5.4 5.7 6.2 6.3 6.5 6.5 6.7 6.8 6.9 7.0 7.1 7.1 6.8 6.6 6.4 6.4 6.4 6.4 6.4 6.3 6.1 6.0 5.7 5.8 5.8 6.0 6.1 6.1 6.1 6.1 6.1 6.0
6.0 6.3 6.3 6.1 6.1 6.1 5.9 5.8 5.7 5.7 5.5 6.1 5.6 7.2 5.8 5.9 6.0 6.0 6.1 6.3 6.5 6.6 6.7 6.7 6.5 6.3 6.3 6.3 6.4 6.4 6.4 6.3 6.2 6.0 5.9 5.9 6.0 5.9 5.9 5.7 5.7 5.7 5.7 5.7
6.0 6.3 6.2 6.3 6.3 6.2 6.1 5.9 5.8 5.7 5.5 5.5 5.6 6.0 5.2 5.5 5.5 5.6 5.7 5.9 5.9 5.9 5.9 5.9 5.9 6.0 6.0 6.0 6.0 5.9 5.8 5.9 6.0 6.1 6.0 5.8 5.8 5.8 5.8 5.7 5.8 6.0 6.0 5.8
6.0 5.9 6.2 6.2 6.0 6.0 6.3 6.0 5.8 5.7 5.6 5.7 5.4 5.5 5.7 5.3 5.2 5.4 5.2 5.2 5.3 5.4 5.5 5.6 5.7 5.7 5.7 5.6 5.6 5.7 5.8 5.8 5.8 5.9 5.9 6.0 5.9 5.8 5.7 5.7 5.7 5.7 5.9 6.0
5.9 5.9 6.0 6.0 6.0 6.0 6.2 5.7 5.9 6.0 5.8 6.4 5.0 4.9 5.9 5.6 5.3 5.1 5.1 5.1 5.1 5.2 5.3 5.4 5.5 5.4 5.5 5.6 5.7 5.7 5.7 5.7 5.8 5.9 6.0 6.1 6.1 5.9 5.7 5.8 5.8 5.8 5.8 5.9
6.1 5.9 5.8 5.8 5.9 6.0 5.8 6.0 6.4 6.8 6.8 6.6 4.9 5.5 5.7 5.4 5.1 5.0 4.9 5.0 5.1 5.3 5.4 5.5 5.6 5.6 5.6 5.6 5.6 5.6 5.6 5.5 5.6 5.6 5.7 5.7 5.8 5.8 5.8 5.6 5.6 5.6 5.8 6.0
6.3 5.8 5.9 5.9 5.8 5.9 5.7 5.6 6.0 6.0 5.4 5.9 6.3 5.7 5.5 5.4 5.2 4.7 4.7 4.9 5.1 5.4 5.5 5.7 5.8 5.9 6.0 5.9 5.9 5.8 5.6 5.6 5.7 5.7 5.6 5.5 5.5 5.4 5.5 5.6 5.6 5.7 5.6 5.7
6.4 5.8 5.9 5.6 5.5 5.6 5.8 6.0 5.9 6.1 6.4 7.0 6.3 5.9 6.3 5.6 5.1 4.8 5.0 5.2 5.4 5.7 5.9 5.8 5.9 6.0 6.1 6.1 6.0 6.1 6.1 6.0 5.9 5.7 5.7 5.5 5.5 5.6 5.7 5.8 5.9 6.0 6.0 6.0
6.9 6.4 5.8 5.8 5.8 5.7 5.7 5.6 5.8 5.8 5.5 6.8 7.4 7.0 5.6 5.6 5.4 5.5 5.7 5.8 5.8 6.0 6.0 5.8 5.8 5.8 5.9 6.0 5.9 5.9 6.0 5.9 5.9 5.9 5.7 5.8 5.8 5.8 5.9 5.9 6.0 6.2 6.3 6.2
6.7 6.4 5.8 5.7 5.8 5.9 5.8 5.8 5.7 6.0 5.4 5.0 5.1 6.7 6.0 5.8 5.9 5.9 5.8 5.7 5.6 5.8 5.7 5.7 5.6 5.7 5.7 5.7 5.6 5.5 5.6 5.6 5.6 5.7 5.8 5.9 6.2 6.1 6.0 6.2 6.0 6.1 6.3 6.7
6.7 6.4 5.6 5.4 5.4 5.5 5.5 5.8 5.8 5.9 5.6 5.3 6.4 6.9 6.2 6.1 5.7 5.5 5.5 5.3 5.3 5.3 5.2 5.4 5.5 5.4 5.4 5.4 5.1 5.2 5.3 5.4 5.4 5.6 5.8 6.1 6.3 6.2 6.4 6.2 6.1 6.4 6.7 6.9
6.8 6.6 6.4 6.8 6.1 5.8 5.4 5.7 5.6 5.4 5.3 5.7 6.0 6.1 6.2 6.0 5.5 5.4 5.3 5.2 4.9 4.8 5.1 5.1 5.3 5.2 5.4 5.1 5.0 5.2 5.5 5.5 5.6 5.8 5.9 6.0 6.1 6.1 6.0 6.2 6.0 6.1 6.7 6.9
6.4 6.5 6.5 6.4 6.2 5.9 5.7 5.6 5.4 5.3 5.5 5.6 5.8 6.3 6.0 5.6 5.5 5.4 5.1 4.9 4.6 4.5 4.9 5.1 5.1 5.4 5.5 5.3 5.2 5.3 5.5 5.5 5.5 5.6 5.6 5.7 5.7 5.7 5.7 6.2 6.1 6.0 6.4 6.7
6.3 6.3 6.2 6.2 6.1 5.7 5.7 5.6 5.6 5.5 5.3 5.5 5.7 6.3 5.8 5.5 5.4 5.5 5.2 4.6 4.5 4.5 4.8 5.3 5.3 5.4 5.6 5.9 5.4 5.3 5.6 5.6 5.5 5.3 5.3 5.4 5.5 5.6 5.7 5.9 6.0 6.0 6.6 6.3
5.7 5.7 5.8 5.7 5.6 5.5 5.6 6.4 6.0 6.0 6.0 5.9 5.8 6.1 5.8 5.6 5.6 5.5 5.1 4.9 4.8 4.5 4.4 5.2 5.1 5.4 5.7 6.1 5.8 5.7 5.6 5.6 5.5 5.2 5.2 5.0 4.9 5.2 4.8 5.2 5.7 5.7 5.8 6.0
5.5 5.3 5.3 5.3 5.5 5.9 6.2 6.1 5.9 5.9 5.8 6.0 6.2 6.0 5.8 5.9 5.6 5.2 5.2 5.3 5.6 5.4 4.8 5.0 5.1 5.4 5.8 6.0 5.8 5.7 5.4 5.6 5.4 5.1 4.9 5.0 5.0 5.2 5.2 5.4 5.6 5.7 6.0 5.9
5.4 5.3 5.3 5.2 5.5 5.9 6.2 6.3 6.2 6.1 6.1 6.2 6.2 6.2 6.1 6.0 5.7 5.4 5.5 5.7 5.7 5.6 5.4 5.4 5.4 5.4 5.6 5.8 5.8 5.9 5.6 5.6 5.3 5.0 4.4 4.8 5.1 5.0 4.8 5.2 5.5 5.5 5.5 5.6
5.4 5.3 5.2 4.9 5.1 6.4 5.9 6.1 6.1 6.0 6.0 6.1 6.3 6.3 6.2 5.9 5.7 5.6 5.6 5.8 5.8 5.8 5.7 5.8 5.6 4.6 5.6 5.7 5.9 5.9 5.6 5.7 5.2 4.9 5.0 4.6 4.7 4.8 4.8 4.9 4.9 5.3 5.4 5.2
5.4 5.3 5.1 5.1 5.3 5.6 6.0 6.0 5.9 5.8 6.0 6.1 6.3 6.4 6.2 6.0 5.7 5.6 5.4 5.6 5.9 6.0 6.1 6.3 6.0 4.8 4.9 5.7 5.8 5.7 5.5 5.4 5.3 5.1 5.3 5.1 5.0 5.0 5.1 5.1 5.1 5.2 5.3 5.4
5.4 5.2 5.0 4.8 5.0 5.4 5.9 5.8 5.7 5.9 5.9 6.2 6.2 6.3 6.3 6.3 5.9 5.9 5.5 5.5 5.8 5.9 6.1 6.4 6.3 5.5 5.8 5.6 5.3 5.0 5.4 5.3 5.2 5.3 5.1 5.0 5.1 5.1 5.1 5.2 5.2 5.4 5.4 5.4
5.8 6.0 5.6 5.7 5.7 5.8 5.6 5.6 5.6 6.0 6.1 6.2 6.3 6.2 6.3 6.4 6.1 5.9 5.8 5.5 5.6 5.7 5.9 6.1 6.2 6.3 6.1 5.7 5.3 5.3 5.3 5.3 5.2 5.1 5.1 5.2 5.2 5.3 5.3 5.3 5.3 5.4 5.5 5.6
6.1 6.1 5.9 5.9 6.1 5.9 5.5 5.6 5.8 5.8 6.0 6.0 6.1 6.2 6.2 6.3 6.1 5.8 5.9 5.8 5.9 5.5 5.7 5.9 6.0 6.1 6.0 5.9 5.7 5.6 5.3 5.3 5.3 5.3 5.2 5.2 5.3 5.3 5.3 5.4 5.5 5.6 5.7 5.8
6.4 6.4 6.2 6.1 6.1 5.9 5.8 5.7 5.8 5.9 6.0 6.0 6.0 6.2 6.3 6.3 6.3 6.3 6.1 5.9 6.0 5.8 5.5 5.8 5.9 5.8 5.8 5.7 5.7 5.6 5.5 5.4 5.4 5.4 5.2 5.2 5.3 5.3 5.5 5.5 5.6 5.6 5.7 5.9
6.8 6.8 6.5 6.3 6.1 5.9 5.8 6.1 6.1 6.1 6.0 6.0 6.1 6.2 6.3 6.3 6.4 6.3 6.4 6.4 6.1 5.9 5.8 5.6 5.8 5.8 5.7 5.7 5.7 5.7 5.6 5.5 5.5 5.4 5.4 5.3 5.4 5.5 5.6 5.6 5.6 5.7 5.8 5.9
Wind_Speed
19 5 14 20 19 0 8 16 9 7 6 7 12 11 12 12 13 14 15 14 12 10 10 11 11 11 11 11 12 12 12 13 12 11 7 8 9 9 7 10 18 19 20 21
11 14 14 14 14 7 12 13 10 5 5 6 5 8 12 14 13 10 10 10 8 5 3 4 6 6 7 9 11 12 13 14 13 12 11 12 11 10 11 9 13 18 20 21
16 6 14 16 14 12 9 12 10 4 6 1 4 7 6 3 4 5 6 5 5 5 5 7 7 7 5 4 7 9 11 12 12 13 11 10 10 8 9 11 11 14 20 20
3 6 18 18 18 14 11 4 8 8 7 3 2 3 4 7 9 9 10 8 7 7 7 7 7 8 9 8 6 5 6 8 9 10 12 15 12 13 12 12 11 11 17 15
4 7 14 17 18 14 4 7 6 5 3 1 4 4 6 9 10 9 8 7 7 7 6 7 8 7 7 7 7 6 4 3 5 9 12 11 14 11 10 10 14 14 12 16
5 4 5 3 8 6 11 10 7 4 1 4 4 4 8 9 11 9 5 6 5 6 6 8 7 7 8 8 8 7 7 5 4 2 8 12 14 13 10 11 10 10 8 8
2 4 2 8 7 5 3 9 4 3 3 2 1 4 3 8 6 9 5 5 5 5 7 8 9 9 10 11 10 7 7 6 6 5 3 5 9 11 13 12 10 12 9 8
3 4 2 2 1 6 7 4 2 3 4 3 3 5 3 7 8 9 2 3 3 5 6 7 8 8 9 10 11 11 9 7 7 7 6 4 4 4 6 9 10 9 10 10
4 4 4 2 2 3 3 4 2 4 2 2 4 3 4 4 9 7 2 3 4 5 8 8 8 8 9 10 11 11 9 7 7 7 6 6 5 5 6 8 8 8 10 9
3 6 2 5 3 9 2 8 3 0 4 4 4 3 4 11 14 6 2 4 3 4 5 7 8 8 9 9 9 8 8 8 8 7 6 6 6 7 7 7 8 8 9 8
6 3 3 3 2 6 4 3 2 1 2 2 2 3 8 15 13 5 4 3 2 4 6 7 7 7 7 8 8 8 9 9 9 9 8 7 6 6 6 6 7 6 5 5
2 5 5 2 2 3 1 2 3 2 3 1 3 3 5 9 9 2 5 1 2 4 5 5 6 7 7 8 8 8 8 9 9 9 8 8 8 8 7 6 6 5 4 1
5 3 5 4 2 1 4 4 2 4 2 4 2 4 4 5 6 4 5 1 3 4 4 5 5 6 7 8 8 8 9 10 10 10 10 10 10 10 10 10 9 7 6 5
3 3 1 0 3 3 4 8 9 4 3 4 5 2 7 7 4 7 3 1 2 3 3 5 5 6 6 6 7 9 9 8 7 7 9 10 10 10 9 9 9 9 9 9
1 3 0 1 1 2 3 6 12 8 5 5 1 5 4 6 7 7 1 0 2 2 2 4 4 4 4 4 5 6 6 7 7 9 11 10 10 9 9 9 10 11 11 10
2 3 1 0 0 5 5 9 9 13 13 12 13 18 15 6 3 2 3 2 2 1 2 2 3 3 3 5 7 7 7 7 7 9 10 10 10 10 9 10 11 11 11 10
3 5 1 1 2 3 8 15 17 10 9 12 10 8 5 4 5 3 4 3 2 2 0 1 2 3 5 5 7 6 6 7 8 8 9 10 10 9 10 10 11 10 13 10
6 5 1 1 1 4 2 2 4 16 9 15 11 13 10 7 2 3 3 2 1 2 2 1 1 3 4 4 6 5 7 8 8 7 8 7 8 8 8 10 9 10 9 8
1 4 2 2 3 6 2 3 5 6 0 13 17 15 8 3 4 3 4 2 2 2 3 2 3 4 3 5 6 6 7 8 7 7 8 6 7 8 8 9 9 8 9 9
4 2 3 1 3 3 3 3 2 3 5 5 8 6 3 6 3 3 6 5 4 3 3 3 3 3 4 5 5 6 7 8 8 7 6 6 7 8 8 7 8 8 9 8
3 2 7 5 4 5 4 4 1 3 4 1 2 4 4 4 2 8 7 5 4 4 4 3 4 5 5 5 6 6 6 7 6 6 6 7 7 7 7 8 7 7 8 8
8 5 3 5 5 6 2 4 3 1 0 1 3 4 5 4 7 8 7 7 6 6 5 4 5 5 5 6 6 6 6 5 6 6 7 7 8 6 5 7 7 7 7 7
5 5 3 7 3 1 2 1 2 2 8 7 4 2 3 8 8 10 9 8 6 7 6 5 6 6 6 6 6 7 5 6 7 8 8 7 7 7 6 6 6 5 4 4
6 7 3 3 4 10 10 6 2 4 5 4 3 2 4 6 9 10 10 8 8 8 8 7 8 8 8 7 6 7 7 7 7 7 7 6 6 6 5 4 4 4 3 3
1 7 8 9 8 8 11 4 3 4 4 4 2 3 5 6 10 11 10 10 8 9 9 9 8 9 8 8 8 8 7 8 7 7 6 6 5 5 5 5 4 4 5 4
6 7 6 6 5 4 3 3 3 7 6 5 4 4 4 7 9 12 10 10 10 9 11 9 10 11 9 8 8 8 8 8 8 6 5 4 4 4 4 4 5 7 7 6
Wind_Direction
189 194 187 185 194 57 181 196 189 209 140 207 229 241 247 255 261 258 264 268 269 273 287 285 281 272 265 255 245 240 241 233 234 225 212 221 213 223 221 229 232 226 222 221
169 209 206 183 180 164 183 189 184 107 165 230 209 250 251 252 265 284 282 280 289 290 309 334 322 296 270 263 257 247 236 233 230 233 218 225 224 233 231 230 228 226 229 226
181 208 193 186 179 183 191 198 172 153 149 112 276 247 204 126 96 109 94 96 73 49 36 34 39 34 19 332 281 259 254 247 243 237 239 232 232 234 230 228 229 226 226 225
152 299 188 186 188 183 180 170 152 139 184 210 276 179 118 131 114 110 103 83 61 46 43 41 35 37 29 12 358 297 269 255 248 244 239 232 230 231 233 237 232 232 228 228
185 227 173 186 187 192 115 156 124 117 140 251 189 243 114 152 138 126 94 73 57 38 28 26 26 22 20 15 10 14 356 296 262 240 230 237 235 244 243 243 243 240 233 231
33 0 28 101 77 76 134 109 85 91 104 231 159 251 165 178 165 142 105 62 58 35 28 23 21 17 19 20 13 12 13 31 20 259 233 237 240 243 244 246 247 249 241 235
31 46 35 110 79 90 80 167 139 175 189 250 149 217 61 144 166 147 89 54 35 23 27 13 8 4 3 1 2 0 2 3 4 4 342 270 260 263 259 255 253 253 250 245
89 109 59 231 133 173 177 238 263 190 180 139 159 225 130 142 141 150 78 12 16 36 20 14 7 350 347 345 344 350 350 353 2 360 350 321 289 269 262 259 258 259 256 248
121 83 97 128 120 160 172 216 20 95 61 230 178 216 219 179 194 204 306 348 33 22 4 2 354 351 348 344 342 339 339 344 354 352 345 344 331 304 284 282 275 269 267 265
124 111 43 157 153 55 249 134 168 248 184 224 181 237 144 150 157 178 360 5 29 3 3 357 357 358 356 350 349 350 346 343 350 349 351 346 350 342 327 311 294 287 284 286
136 98 150 193 210 177 151 190 78 102 312 274 192 131 135 150 148 119 14 7 356 354 5 8 16 9 11 10 13 11 7 359 358 358 354 359 356 351 345 335 324 311 303 286
79 106 151 151 34 306 290 209 208 255 170 31 332 105 164 163 169 86 357 357 356 22 8 30 28 18 19 19 19 18 14 13 7 3 2 3 2 1 359 352 348 339 324 311
163 108 125 161 197 190 219 195 156 103 68 198 234 118 147 184 215 278 327 24 22 9 27 34 30 26 22 16 15 16 18 15 14 15 19 19 18 16 19 12 12 18 17 41
97 110 298 238 86 117 191 194 194 167 181 175 230 352 176 184 267 324 335 312 3 16 36 34 24 24 12 15 21 20 16 13 13 31 39 37 32 34 32 33 35 42 50 60
49 106 73 38 68 190 217 198 194 205 194 210 57 229 245 299 312 322 347 213 341 349 37 31 31 24 354 18 41 34 29 20 27 44 46 40 37 43 42 44 48 56 53 49
27 108 82 19 43 250 265 243 221 223 235 252 261 279 280 291 302 298 251 212 253 309 21 26 19 25 9 20 33 29 25 31 41 52 53 52 50 43 45 50 58 62 68 60
131 138 165 230 354 282 265 232 212 206 209 221 220 234 226 290 308 303 217 209 226 196 132 51 26 32 32 31 38 31 28 41 45 54 57 59 63 58 54 60 61 58 62 57
155 119 140 299 251 236 77 121 216 214 229 222 249 251 259 292 300 175 175 206 189 177 149 141 93 70 53 59 61 48 53 58 55 52 64 63 71 76 77 72 62 61 62 60
213 144 141 259 244 305 203 159 167 181 173 225 234 257 269 233 181 182 160 123 150 147 135 114 58 60 61 61 59 70 66 71 64 56 63 61 72 73 67 64 64 65 72 63
93 76 223 151 268 252 69 111 217 204 168 175 207 250 212 172 235 111 159 153 141 132 137 133 104 85 72 58 70 84 80 74 66 60 65 68 74 73 73 75 76 76 78 75
162 161 219 218 265 280 248 223 341 227 93 117 218 245 215 218 24 126 132 138 144 138 134 119 95 84 80 88 95 90 85 78 81 83 82 82 78 79 87 92 89 97 97 98
189 192 200 204 228 257 152 129 196 1 24 283 292 266 236 161 129 143 153 162 158 136 125 123 112 99 99 110 113 99 87 94 91 91 85 86 100 100 104 108 104 101 100 99
209 211 189 214 229 3 217 245 299 259 294 300 268 251 221 159 172 167 171 170 157 148 143 139 130 125 117 126 126 112 105 109 117 114 112 111 104 97 95 96 95 93 92 94
218 193 239 207 225 242 248 252 314 333 303 295 261 284 211 202 173 169 166 167 162 156 161 159 149 143 139 140 131 125 136 137 134 118 111 107 99 97 92 91 85 89 84 84
226 164 219 246 263 271 263 223 139 349 283 261 241 240 241 211 182 175 173 172 170 164 161 166 164 156 154 153 147 150 150 149 134 125 120 108 101 99 93 71 60 73 56 41
191 210 212 249 217 232 145 104 26 297 316 300 256 228 220 209 192 183 178 171 170 172 164 171 172 163 165 162 155 153 154 152 144 138 132 132 128 117 111 111 108 80 79 80